{"data":{"norad_id":53076,"epoch":"2026-09-19T22:32:37.165056Z","epoch_age_seconds":120748,"freshness":"FRESH","line1":"1 53076U 22077AK  26262.93931904  .00002137  00000+0  68502-4 0  9992","line2":"2 53076  97.2845  77.6928 0001612  87.1064 273.0363 15.33438699230205","mean_motion":15.33438699,"eccentricity":0.0001612,"inclination_deg":97.2845,"raan_deg":77.6928,"arg_perigee_deg":87.1064,"mean_anomaly_deg":273.0363,"bstar":6.8502e-5,"rev_number":23020,"period_min":93.906590523577,"perigee_km":464.45871761899,"apogee_km":466.6651261514,"semimajor_km":6843.6989218852,"source":"CELESTRAK","updated_at":"2026-09-20T09:00:40.156625Z"}}